Volver al catálogo

WEILI KONGJIAN 05-01

ActivoCienciaLEO
NORAD 69582·PAYLOAD·🇨🇳 China
Este nombre de satélite aún no ha sido confirmado por fuentes oficiales.

Lanzado Jun 17, 2026 desde Jiuquan Satellite Launch Center

Loading…

Próximos Pases (próximas 24 horas)

TLE

ActualizadoSource: Space-Track

Época: Sep 14, 2026, 12:59 UTC

1 69582U 26138A   26257.54111185  .00000043  00000-0  11291-3 0  9992
2 69582  55.1411 311.8531 0005798 280.3951  79.6367 14.08054132 12669

Sigue WEILI KONGJIAN 05-01 en tiempo real con AllMySat

Download on the App Store